ROMMA est une association bénévole à but non lucratif. Votre soutien est indispensable : ADHERER à ROMMA ou FAIRE un DON

La Javie - (04, Alpes de Haute Provence)

Vallée de la Bléone (820 m)   Longitude: 06° 21' E   Latitude: 44° 10' N Station partenaire n°129
 

Détail journalier du     <<     >>

Température Precipitation Humidité Pression Vent Dir Rafale Dir. rafale Ensol.
Heure (°C) (mm) (%) (hPa) (km/h) (km/h) (min)
01:00 12.1099101300---0
02:00 11.6099101200---0
03:00 10.8099101200---0
04:00 10.20.299101200---0
05:00 9.80100101100---0
06:00 9.40100101200---0
07:00 9.30100101200---0
08:00 9.60100101300---0
09:00 12.30100101300---0
10:00 17.0080101203---0
11:00 17.907010121---8---0
12:00 18.706910122---16---0
13:00 20.506610124---21---0
14:00 21.205610125---18---0
15:00 21.205710128---27---0
16:00 20.904610128---23---0
17:00 20.705610126---23---0
18:00 20.704910113---19---0
19:00 19.804610112---14---0
20:00 18.605110121---14---0
21:00 16.805610121---6---0
22:00 15.2070101200---0
23:00 12.9077101400---0
minuit 10.9084101400---0

Graphique du 17-06-2020

 

Serveur OMMA